TimeMST,TemperatureF,Dew PointF,Humidity,Sea Level PressureIn,VisibilityMPH,Wind Direction,Wind SpeedMPH,Gust SpeedMPH,PrecipitationIn,Events,Conditions,WindDirDegrees,DateUTC
12:28 AM,32.0,32.0,100,29.85,10.0,WNW,5.8,-,N/A,,Scattered Clouds,290,2012-12-13 07:28:00
12:38 AM,32.0,32.0,100,29.85,10.0,WNW,5.8,-,N/A,,Mostly Cloudy,300,2012-12-13 07:38:00
12:48 AM,32.0,32.0,100,29.85,10.0,Variable,2.3,-,N/A,,Mostly Cloudy,0,2012-12-13 07:48:00
12:58 AM,33.6,33.6,100,29.90,10.0,South,4.6,-,N/A,,Mostly Cloudy,180,2012-12-13 07:58:00
1:58 AM,34.5,34.5,100,29.90,10.0,West,4.6,-,0.00,,Scattered Clouds,270,2012-12-13 08:58:00
2:13 AM,33.8,33.8,100,29.86,10.0,WSW,4.6,-,N/A,,Mostly Cloudy,240,2012-12-13 09:13:00
2:58 AM,34.2,34.2,100,29.91,10.0,West,8.1,-,N/A,,Overcast,280,2012-12-13 09:58:00
3:18 AM,33.8,33.8,100,29.86,10.0,WNW,6.9,-,N/A,,Mostly Cloudy,300,2012-12-13 10:18:00
3:23 AM,33.8,33.8,100,29.87,10.0,NW,5.8,-,N/A,,Overcast,310,2012-12-13 10:23:00
3:38 AM,33.8,33.8,100,29.87,10.0,NW,4.6,-,N/A,,Mostly Cloudy,310,2012-12-13 10:38:00
3:58 AM,33.6,33.6,100,29.91,9.0,NW,3.5,-,0.00,Rain,Light Rain,310,2012-12-13 10:58:00
4:03 AM,32.0,32.0,100,29.87,9.0,NW,3.5,-,N/A,,Light Drizzle,310,2012-12-13 11:03:00
4:05 AM,33.8,33.8,100,29.92,6.0,WNW,9.2,-,N/A,Snow,Light Snow,290,2012-12-13 11:05:00
4:23 AM,32.0,32.0,100,29.87,7.0,WNW,4.6,-,N/A,,Overcast,300,2012-12-13 11:23:00
4:33 AM,32.0,32.0,100,29.87,6.0,WNW,4.6,-,N/A,,Overcast,300,2012-12-13 11:33:00
4:43 AM,32.0,32.0,100,29.87,6.0,NW,5.8,-,N/A,,Overcast,310,2012-12-13 11:43:00
4:58 AM,33.4,33.4,100,29.91,7.0,NW,8.1,-,0.00,,Overcast,310,2012-12-13 11:58:00
5:08 AM,32.0,32.0,100,29.87,5.0,NW,6.9,-,N/A,,Overcast,310,2012-12-13 12:08:00
5:53 AM,32.0,32.0,100,29.87,5.0,NNW,10.4,-,N/A,,Overcast,330,2012-12-13 12:53:00
5:58 AM,33.1,33.1,100,29.92,6.0,NNW,10.4,-,N/A,,Overcast,340,2012-12-13 12:58:00
6:33 AM,32.0,32.0,100,29.87,7.0,NNW,11.5,-,N/A,,Overcast,340,2012-12-13 13:33:00
6:48 AM,32.0,32.0,100,29.87,10.0,NNW,10.4,-,N/A,,Overcast,340,2012-12-13 13:48:00
6:53 AM,32.0,32.0,100,29.88,9.0,NNW,9.2,-,N/A,,Overcast,340,2012-12-13 13:53:00
6:58 AM,32.5,32.5,100,29.93,8.0,NNW,10.4,-,N/A,,Overcast,340,2012-12-13 13:58:00
7:58 AM,32.0,32.0,100,29.94,8.0,NW,8.1,-,N/A,,Overcast,320,2012-12-13 14:58:00
8:08 AM,32.0,32.0,100,29.89,5.0,NNW,9.2,-,N/A,,Overcast,330,2012-12-13 15:08:00
8:33 AM,32.0,32.0,100,29.90,2.2,NW,8.1,-,N/A,Snow,Light Snow,310,2012-12-13 15:33:00
8:38 AM,32.0,32.0,100,29.90,2.2,NW,6.9,-,N/A,Snow,Light Snow,310,2012-12-13 15:38:00
9:46 AM,32.0,32.0,100,29.91,7.0,WNW,8.1,-,N/A,,Overcast,300,2012-12-13 16:46:00
10:00 AM,32.0,32.0,100,29.96,7.0,West,5.8,-,0.00,,Overcast,280,2012-12-13 17:00:00
10:27 AM,33.8,33.8,100,29.91,3.0,WNW,8.1,-,N/A,Snow,Light Snow,300,2012-12-13 17:27:00
10:48 AM,32.0,32.0,100,29.92,10.0,WNW,9.2,-,N/A,Rain,Light Rain,290,2012-12-13 17:48:00
10:49 AM,32.0,32.0,100,29.92,10.0,WNW,9.2,-,N/A,Rain,Light Rain,290,2012-12-13 17:49:00
10:55 AM,33.8,33.8,100,29.92,6.0,WNW,10.4,-,N/A,Snow,Light Snow,290,2012-12-13 17:55:00
11:09 AM,32.0,32.0,100,29.92,10.0,WNW,9.2,-,N/A,Rain,Light Rain,300,2012-12-13 18:09:00
11:14 AM,32.0,32.0,100,29.91,10.0,WNW,10.4,-,N/A,Rain,Light Rain,300,2012-12-13 18:14:00
11:24 AM,33.8,33.8,100,29.91,10.0,WNW,8.1,-,N/A,,Overcast,300,2012-12-13 18:24:00
11:58 AM,34.9,34.9,100,29.96,10.0,WNW,8.1,-,0.00,,Overcast,290,2012-12-13 18:58:00
12:18 PM,35.6,35.6,100,29.90,10.0,WNW,9.2,-,N/A,,Overcast,290,2012-12-13 19:18:00
12:58 PM,35.2,35.2,100,29.95,10.0,West,6.9,-,N/A,,Overcast,280,2012-12-13 19:58:00
1:58 PM,35.6,35.6,100,29.92,10.0,WNW,8.1,-,N/A,,Overcast,290,2012-12-13 20:58:00
2:58 PM,36.3,36.3,100,29.90,10.0,North,-9999.0,-,N/A,,Overcast,0,2012-12-13 21:58:00
4:23 PM,35.6,35.6,100,29.86,10.0,WNW,5.8,-,N/A,,Overcast,290,2012-12-13 23:23:00
4:58 PM,35.2,35.1,99,29.91,10.0,WNW,3.5,-,N/A,,Overcast,290,2012-12-13 23:58:00
5:58 PM,34.7,34.7,100,29.91,10.0,West,2.3,-,N/A,,Overcast,260,2012-12-14 00:58:00
6:18 PM,33.8,33.8,100,29.85,10.0,WNW,3.5,-,N/A,,Overcast,290,2012-12-14 01:18:00
6:58 PM,34.5,34.5,100,29.91,10.0,SW,3.5,-,N/A,,Overcast,230,2012-12-14 01:58:00
7:58 PM,33.8,33.8,100,29.90,10.0,West,3.5,-,N/A,,Overcast,280,2012-12-14 02:58:00
8:58 PM,34.0,34.0,100,29.84,10.0,North,-9999.0,-,N/A,,Overcast,0,2012-12-14 03:58:00
9:58 PM,33.8,33.8,100,29.83,10.0,ENE,2.3,-,N/A,,Overcast,60,2012-12-14 04:58:00
10:58 PM,34.0,34.0,100,29.88,10.0,Calm,Calm,-,N/A,,Overcast,0,2012-12-14 05:58:00
11:58 PM,32.9,32.9,100,29.88,10.0,Variable,2.3,-,N/A,,Overcast,0,2012-12-14 06:58:00